Flag for Belarus Weather past 2 weeks in Barysaw, Belarus

Now
28 °F

Low clouds.


Feels Like: 22 °F
Forecast: 29 / 33 °F
Wind: 6 mph from South

Location: Minsk

Current Time: Jan 27, 2015 at 9:56:27 PM

Latest Report: Jan 27, 2015 at 9:00 PM


Visibility: N/A

Pressure: 29.92 "Hg

Humidity: 100%

Dew point: 28 °F

Location of BarysawLocation

Historic Weather in Barysaw — Graph

°F

Barysaw temperature yesterday

Maximum temperature yesterday: 28 °F (at 4:00 PM)
Minimum temperature yesterday: 19 °F (at 12:00 AM)
Average temperature yesterday: 24 °F

Past Weeks' High & Low Weather Summary

 TemperatureHumidityPressure
High39 °F (Jan 13, 11:30 AM)100% (Jan 12, 10:30 PM)30.24 "Hg (Jan 12, 10:30 PM)
Low19 °F (Jan 25, 9:30 PM)69% (Jan 20, 2:00 PM)29.59 "Hg (Jan 13, 7:00 AM)
Average31 °F96%30.03 "Hg
* Reported Jan 12 8:00 PM — Jan 27 8:30 PM, Barysaw, Weather by CustomWeather, © 2014

Note: Actual official high and low records may vary slightly from our data, if they occured in-between our weather recording intervals... More about our weather records

Advertising

Barysaw weather history for previous 24 hours

 ConditionsComfort  
Time TempWeatherWind HumidityBarometerVisibility
8:30 PM
Jan 27
28 °FLight snow. Low clouds.6 mph100%29.92 "HgN/A
8:00 PM28 °FLow clouds.8 mph100%29.95 "HgN/A
7:30 PM28 °FLow clouds.6 mph100%29.95 "HgN/A
7:00 PM28 °FLight snow. Low clouds.6 mph100%29.95 "Hg4 mi
6:30 PM28 °FSnow flurries. Mostly cloudy.6 mph100%29.95 "Hg3 mi
6:03 PM28 °FSnow flurries. Mostly cloudy.6 mph100%29.95 "Hg2 mi
5:30 PM28 °FSnow flurries. Mostly cloudy.8 mph100%29.95 "Hg2 mi
5:00 PM28 °FLight snow. Overcast.6 mph100%29.95 "HgN/A
4:30 PM28 °FLight snow. Overcast.8 mph100%29.95 "HgN/A
4:00 PM28 °FLight snow. Overcast.8 mph100%29.95 "HgN/A
3:30 PM30 °FLight snow. Overcast.8 mph93%29.95 "Hg6 mi
3:00 PM30 °FLight snow. Overcast.6 mph93%29.95 "HgN/A
2:54 PM30 °FLight snow. Overcast.6 mph93%29.95 "HgN/A
2:30 PM30 °FLight snow. More clouds than sun.8 mph93%29.95 "Hg6 mi
2:00 PM30 °FLight snow. Mostly cloudy.8 mph93%29.95 "HgN/A
1:30 PM30 °FLight snow. Ice fog.8 mph93%29.95 "Hg3 mi
1:00 PM28 °FSnow flurries. Ice fog.8 mph100%29.95 "Hg3 mi
12:56 PM28 °FSnow flurries. Ice fog.8 mph100%29.98 "Hg3 mi
12:30 PM28 °FLight snow. Ice fog.8 mph100%29.98 "Hg2 mi
12:00 PM28 °FLight snow. Mostly cloudy.8 mph100%29.98 "Hg4 mi
11:30 AM28 °FLight snow. Mostly cloudy.6 mph100%29.98 "Hg4 mi
11:00 AM28 °FLight snow. Partly sunny.6 mph100%29.98 "Hg5 mi
10:30 AM28 °FLight snow. Partly sunny.6 mph100%29.98 "Hg4 mi
10:00 AM28 °FLight snow. Mostly cloudy.6 mph100%29.98 "Hg4 mi
9:30 AM28 °FLight snow. Mostly cloudy.6 mph100%29.98 "Hg4 mi
9:00 AM28 °FLight snow. Ice fog.6 mph100%29.98 "Hg2 mi
8:50 AM28 °FLight snow. Ice fog.3 mph100%29.98 "Hg3 mi
8:30 AM28 °FLight snow. Ice fog.3 mph100%29.98 "Hg2 mi
8:00 AM28 °FLight snow. Ice fog.6 mph100%29.98 "Hg2 mi
7:00 AM28 °FLight snow. Ice fog.3 mph100%29.98 "Hg1 mi
6:30 AM28 °FLight snow. Ice fog.3 mph100%30.01 "Hg2 mi
5:30 AM28 °FLight snow. Mostly cloudy.6 mph100%30.01 "Hg5 mi
5:00 AM28 °FLight snow. Mostly cloudy.3 mph100%30.01 "Hg5 mi
4:30 AM28 °FLight snow. Mostly cloudy.6 mph100%30.01 "Hg4 mi
4:00 AM28 °FMostly cloudy.3 mph100%30.04 "HgN/A
3:30 AM28 °FLight snow. Mostly cloudy.3 mph100%30.04 "Hg5 mi
3:00 AM28 °FLight snow. Ice fog.3 mph100%30.04 "Hg2 mi
2:30 AM28 °FLight freezing rain. Ice fog.3 mph100%30.04 "Hg2 mi
2:00 AM28 °FLight freezing rain. Ice fog.3 mph100%30.04 "Hg1 mi
1:55 AM28 °FLight freezing rain. Ice fog.3 mph100%30.04 "Hg1 mi
1:30 AM28 °FIce fog.3 mph100%30.04 "Hg1 mi
1:00 AM28 °FIce fog.3 mph100%30.04 "Hg2 mi
12:30 AM28 °FIce fog.3 mph100%30.07 "Hg2 mi
12:00 AM28 °FIce fog.1 mph100%30.07 "Hg2 mi
11:30 PM
Jan 26
28 °FIce fog.1 mph100%30.07 "Hg2 mi
11:00 PM28 °FIce fog.3 mph100%30.07 "Hg2 mi
10:30 PM28 °FIce fog.3 mph100%30.07 "Hg2 mi
10:00 PM28 °FIce fog.3 mph100%30.07 "Hg2 mi
9:54 PM28 °FIce fog.3 mph100%30.07 "Hg2 mi
9:30 PM28 °FLight freezing rain. Ice fog.3 mph100%30.07 "Hg2 mi
9:00 PM28 °FLight freezing rain. Ice fog.3 mph100%30.09 "Hg1 mi
Weather by CustomWeather, © 2014

See weather overviewHow to use our weather pages